Stündliche Wetter Abobo Baoule

Heute, 21 Juni, Montag

Zeit Temperatur Niederschläge Wind Luftdruck Luftfeuchtigkeit
00:00 +25°C° 1.2 mm 2 m/S 755 mmHg 93%
01:00 +25°C° 1 mm 2 m/S 754 mmHg 94%
02:00 +25°C° 1 mm 2 m/S 754 mmHg 94%
03:00 +25°C° 1 mm 2 m/S 754 mmHg 94%
04:00 +25°C° 0.6 mm 2 m/S 754 mmHg 94%
05:00 +25°C° 0.6 mm 2 m/S 754 mmHg 94%
06:00 +25°C° 0.6 mm 2 m/S 754 mmHg 93%
07:00 +25°C° 0.9 mm 2 m/S 755 mmHg 92%
08:00 +26°C° 0.9 mm 2 m/S 755 mmHg 90%
09:00 +26°C° 0.9 mm 2 m/S 755 mmHg 89%
10:00 +26°C° 0.6 mm 2 m/S 755 mmHg 88%
11:00 +26°C° 0.6 mm 2 m/S 755 mmHg 88%
12:00 +26°C° 0.6 mm 2 m/S 755 mmHg 88%
13:00 +26°C° 0.1 mm 2 m/S 754 mmHg 88%
14:00 +26°C° 0.1 mm 2 m/S 754 mmHg 87%
15:00 +26°C° 0.1 mm 2 m/S 753 mmHg 86%
16:00 +26°C° 0 mm 2 m/S 754 mmHg 87%
17:00 +26°C° 0 mm 1 m/S 754 mmHg 89%
18:00 +25°C° 0 mm 1 m/S 754 mmHg 90%
19:00 +25°C° 0 mm 1 m/S 754 mmHg 90%
20:00 +25°C° 0 mm 1 m/S 754 mmHg 91%
21:00 +25°C° 0 mm 1 m/S 754 mmHg 91%
22:00 +25°C° 0 mm 1 m/S 754 mmHg 92%
23:00 +25°C° 0 mm 2 m/S 754 mmHg 92%

Morgen, 22 Juni, Dienstag

Zeit Temperatur Niederschläge Wind Luftdruck Luftfeuchtigkeit
00:00 +25°C° 0 mm 2 m/S 754 mmHg 93%
01:00 +25°C° 0 mm 2 m/S 753 mmHg 92%
02:00 +25°C° 0 mm 2 m/S 753 mmHg 92%
03:00 +25°C° 0 mm 1 m/S 753 mmHg 92%
04:00 +24°C° 0.7 mm 1 m/S 753 mmHg 94%
05:00 +24°C° 0.7 mm 1 m/S 754 mmHg 95%
06:00 +24°C° 0.7 mm 1 m/S 754 mmHg 97%
07:00 +25°C° 1 mm 1 m/S 754 mmHg 93%
08:00 +26°C° 1 mm 1 m/S 754 mmHg 90%
09:00 +27°C° 1 mm 1 m/S 755 mmHg 86%
10:00 +28°C° 0.7 mm 2 m/S 754 mmHg 80%
11:00 +29°C° 0.7 mm 2 m/S 754 mmHg 73%
12:00 +30°C° 0.7 mm 2 m/S 754 mmHg 67%
13:00 +29°C° 0.5 mm 3 m/S 753 mmHg 72%
14:00 +28°C° 0.5 mm 3 m/S 753 mmHg 77%
15:00 +28°C° 0.5 mm 3 m/S 752 mmHg 81%
16:00 +27°C° 0.5 mm 3 m/S 753 mmHg 83%
17:00 +27°C° 0.5 mm 3 m/S 753 mmHg 85%
18:00 +26°C° 0.5 mm 3 m/S 753 mmHg 87%
19:00 +26°C° 0 mm 3 m/S 753 mmHg 88%
20:00 +26°C° 0 mm 3 m/S 753 mmHg 88%
21:00 +25°C° 0 mm 3 m/S 754 mmHg 88%
22:00 +25°C° 0.1 mm 3 m/S 754 mmHg 89%
23:00 +25°C° 0.1 mm 3 m/S 753 mmHg 89%

übermorgen, 23 Juni, Mittwoch

Zeit Temperatur Niederschläge Wind Luftdruck Luftfeuchtigkeit
00:00 +25°C° 0.1 mm 3 m/S 753 mmHg 89%
01:00 +25°C° 0.1 mm 3 m/S 753 mmHg 90%
02:00 +25°C° 0.1 mm 2 m/S 753 mmHg 91%
03:00 +24°C° 0.1 mm 2 m/S 753 mmHg 91%
04:00 +24°C° 0.2 mm 2 m/S 753 mmHg 92%
05:00 +24°C° 0.2 mm 2 m/S 753 mmHg 93%
06:00 +24°C° 0.2 mm 2 m/S 753 mmHg 94%
07:00 +25°C° 0.5 mm 2 m/S 753 mmHg 91%
08:00 +26°C° 0.5 mm 2 m/S 754 mmHg 89%
09:00 +27°C° 0.5 mm 2 m/S 754 mmHg 86%
10:00 +27°C° 0.9 mm 2 m/S 754 mmHg 82%
11:00 +28°C° 0.9 mm 2 m/S 753 mmHg 78%
12:00 +29°C° 0.9 mm 2 m/S 753 mmHg 74%
13:00 +29°C° 0.8 mm 3 m/S 753 mmHg 75%
14:00 +29°C° 0.8 mm 3 m/S 752 mmHg 76%
15:00 +29°C° 0.8 mm 3 m/S 752 mmHg 76%
16:00 +28°C° 0.4 mm 3 m/S 752 mmHg 79%
17:00 +27°C° 0.4 mm 3 m/S 752 mmHg 82%
18:00 +26°C° 0.4 mm 3 m/S 752 mmHg 85%
19:00 +26°C° 0.7 mm 3 m/S 752 mmHg 87%
20:00 +26°C° 0.7 mm 2 m/S 753 mmHg 90%
21:00 +25°C° 0.7 mm 2 m/S 753 mmHg 92%
22:00 +25°C° 0.7 mm 2 m/S 753 mmHg 92%
23:00 +25°C° 0.7 mm 3 m/S 753 mmHg 92%

24 Juni, Donnerstag

Zeit Temperatur Niederschläge Wind Luftdruck Luftfeuchtigkeit
00:00 +25°C° 0.7 mm 3 m/S 753 mmHg 93%
01:00 +25°C° 0.3 mm 3 m/S 753 mmHg 93%
02:00 +25°C° 0.3 mm 3 m/S 752 mmHg 93%
03:00 +25°C° 0.3 mm 3 m/S 752 mmHg 94%
04:00 +25°C° 0.9 mm 3 m/S 752 mmHg 94%
05:00 +25°C° 0.9 mm 2 m/S 753 mmHg 94%
06:00 +25°C° 0.9 mm 2 m/S 753 mmHg 95%
07:00 +26°C° 0.3 mm 2 m/S 753 mmHg 91%
08:00 +27°C° 0.3 mm 2 m/S 754 mmHg 86%
09:00 +28°C° 0.3 mm 3 m/S 754 mmHg 82%
10:00 +29°C° 0.5 mm 3 m/S 754 mmHg 77%
11:00 +30°C° 0.5 mm 3 m/S 753 mmHg 71%
12:00 +31°C° 0.5 mm 3 m/S 753 mmHg 66%
13:00 +30°C° 0.3 mm 3 m/S 753 mmHg 66%
14:00 +30°C° 0.3 mm 3 m/S 752 mmHg 66%
15:00 +30°C° 0.3 mm 3 m/S 752 mmHg 66%
16:00 +29°C° 0.1 mm 3 m/S 752 mmHg 70%
17:00 +28°C° 0.1 mm 3 m/S 752 mmHg 74%
18:00 +27°C° 0.1 mm 3 m/S 752 mmHg 78%
19:00 +27°C° 0 mm 2 m/S 753 mmHg 80%
20:00 +27°C° 0 mm 2 m/S 753 mmHg 83%
21:00 +26°C° 0 mm 1 m/S 754 mmHg 85%
22:00 +26°C° 0.3 mm 1 m/S 754 mmHg 86%
23:00 +26°C° 0.3 mm 1 m/S 754 mmHg 88%

25 Juni, Freitag

Zeit Temperatur Niederschläge Wind Luftdruck Luftfeuchtigkeit
00:00 +26°C° 0.3 mm 1 m/S 753 mmHg 89%
01:00 +25°C° 0.7 mm 1 m/S 753 mmHg 90%
02:00 +25°C° 0.7 mm 1 m/S 753 mmHg 92%
03:00 +25°C° 0.7 mm 1 m/S 753 mmHg 93%
04:00 +25°C° 0.4 mm 1 m/S 753 mmHg 93%
05:00 +25°C° 0.4 mm 1 m/S 753 mmHg 94%
06:00 +25°C° 0.4 mm 1 m/S 753 mmHg 94%
07:00 +26°C° 0.2 mm 1 m/S 754 mmHg 89%
08:00 +27°C° 0.2 mm 1 m/S 754 mmHg 85%
09:00 +28°C° 0.2 mm 1 m/S 754 mmHg 80%
10:00 +28°C° 1.2 mm 1 m/S 754 mmHg 79%
11:00 +29°C° 1.2 mm 2 m/S 754 mmHg 77%
12:00 +29°C° 1.2 mm 2 m/S 754 mmHg 76%
13:00 +29°C° 0.9 mm 3 m/S 753 mmHg 77%
14:00 +29°C° 0.9 mm 3 m/S 753 mmHg 78%
15:00 +28°C° 0.9 mm 3 m/S 752 mmHg 79%
16:00 +28°C° 0.2 mm 3 m/S 752 mmHg 82%
17:00 +27°C° 0.2 mm 2 m/S 752 mmHg 85%
18:00 +26°C° 0.2 mm 2 m/S 753 mmHg 87%
19:00 +26°C° 0 mm 2 m/S 753 mmHg 89%
20:00 +25°C° 0 mm 2 m/S 753 mmHg 90%
21:00 +25°C° 0 mm 2 m/S 754 mmHg 91%
22:00 +25°C° 0 mm 2 m/S 754 mmHg 92%
23:00 +25°C° 0 mm 1 m/S 754 mmHg 92%

26 Juni, Samstag

Zeit Temperatur Niederschläge Wind Luftdruck Luftfeuchtigkeit
00:00 +25°C° 0 mm 1 m/S 754 mmHg 93%
01:00 +25°C° 0 mm 1 m/S 753 mmHg 93%
02:00 +24°C° 0 mm 1 m/S 753 mmHg 94%
03:00 +24°C° 0 mm 1 m/S 752 mmHg 94%
04:00 +24°C° 0 mm 1 m/S 753 mmHg 94%
05:00 +24°C° 0 mm 1 m/S 753 mmHg 95%
06:00 +24°C° 0 mm 1 m/S 753 mmHg 95%
07:00 +25°C° 0 mm 1 m/S 753 mmHg 89%
08:00 +27°C° 0 mm 1 m/S 754 mmHg 84%
09:00 +28°C° 0 mm 1 m/S 754 mmHg 78%
10:00 +29°C° 0 mm 1 m/S 754 mmHg 70%
11:00 +31°C° 0 mm 1 m/S 754 mmHg 63%
12:00 +33°C° 0 mm 1 m/S 753 mmHg 55%
13:00 +32°C° 0.6 mm 2 m/S 753 mmHg 60%
14:00 +31°C° 0.6 mm 2 m/S 752 mmHg 64%
15:00 +30°C° 0.6 mm 3 m/S 751 mmHg 69%
16:00 +30°C° 0.2 mm 2 m/S 751 mmHg 71%
17:00 +29°C° 0.2 mm 2 m/S 752 mmHg 74%
18:00 +28°C° 0.2 mm 2 m/S 752 mmHg 76%
19:00 +28°C° 0.1 mm 2 m/S 752 mmHg 79%
20:00 +27°C° 0.1 mm 2 m/S 753 mmHg 82%
21:00 +27°C° 0.1 mm 2 m/S 753 mmHg 85%
22:00 +27°C° 0.1 mm 2 m/S 753 mmHg 86%
23:00 +26°C° 0.1 mm 2 m/S 753 mmHg 88%
Mehr zeigen

Wir brauchen deine Erlaubnis

Meteoprog und unser Service Anbieter werden persönliche Daten aufbewahren, so wie Cookies, Geräte Bezeichnung oder ähnliche Technologien von deinem Gerät und Prozess, so wie Persönliche Daten Inhalte und Werbungen, genauso wie social Media und den Verkehr zu analysieren.

  • Aufbewahrung und/oder Zugang zu deiner Geräte Informationen.

    Cookies, Geräte Bezeichnung oder andere Informationen, können aufbewahrt oder Zugang zu deinem Gerät erhalten, für den Grund, der oben angegeben wird.

  • Personalisierte Werbung und Inhalte, Messungen, Einblick in das Publikum und Produkt Entwicklung.

    Werbungen und Inhalte können personalisiert werden, basierend auf ein Profil. Mehr Daten können besser personalisierte Werbungen und Inhalte hinzufügen. Werbung und Inhalte können gezeigt und gemessen werden. Einblicke über das Publikum, welche die Werbung gesehen haben und den Inhalt, können abgeleitet werden. So wie Daten können genutzt werden, um es zu verbessern oder die Benutzer Erfahrung zu verbessern das System und die Software.

Wenn du “Ich stimme zu” klickst, erlaubst du uns, die Cookies zu benutzen die Geräte Bezeichnung, den Web oder ähnliche Technologien zu benutzen. Deine Settings, können in deinem Gerät bei deinem Browser geändert werden.

Für den bestimmten Zweck, berechtigten Interessen beruhen darauf, mehr als auf den Inhalt. Du kannst mehr darüber in unseren Privaten und Cookie Politik lesen.